Weather History for Escanaba, MI

Change the Weather History Date:

Saturday, April 20, 2013

  Actual Average Record
Temperature  
Mean Temperature 29 °F -  
Max Temperature 37 °F 47 °F 74 °F (1957)
Min Temperature 21 °F 33 °F 21 °F (2013)
Degree Days  
Heating Degree Days 36    
Moisture  
Dew Point 12 °F    
Average Humidity 52    
Maximum Humidity 68    
Minimum Humidity 33    
Precipitation  
Precipitation 0.00 in - - ()
Sea Level Pressure  
Sea Level Pressure 30.13 in    
Wind  
Wind Speed 12 mph (NW)    
Max Wind Speed 18 mph    
Max Gust Speed 26 mph    
Visibility 10 miles    
Events      
Averages and records for this station are not official NWS values.
T = Trace of Precipitation, MM = Missing Value Source: NWS Daily Summary

Daily Weather History Graph

Daily Weather History Graph

Search for Another Location

Airport:

Trip Planner

Search our weather history database for the weather conditions in past years. The results will help you decide how hot, cold, wet, or windy it might be!

Date:

Astronomy

Apr. 20, 2013 Rise Set
Actual Time 6:53 AM EDT 8:41 PM EDT
Civil Twilight 6:21 AM EDT 9:13 PM EDT
Nautical Twilight 5:43 AM EDT 9:52 PM EDT
Astronomical Twilight 5:01 AM EDT 10:34 PM EDT
Moon 3:09 PM EDT (4/20) 3:59 AM EDT (4/20)
Length of Visible Light 14h 51m
Length of Day
13h 48m
Waxing Gibbous, 71% of the Moon is Illuminated
Apr 20
Waxing Gibbous
Apr 25
Full
May 2
Last Quarter
May 9
New
May 18
First Quarter

Hourly Weather History & Observations

Time (EDT) Temp. Windchill Dew Point Humidity Pressure Visibility Wind Dir Wind Speed Gust Speed Precip Events Conditions
12:15 AM 24.8 °F 11.1 °F 12.2 °F 59% 29.74 in 10.0 mi WNW 18.4 mph 26.5 mph N/A   Overcast
12:35 AM 24.8 °F 13.4 °F 12.2 °F 59% 29.75 in 10.0 mi WNW 12.7 mph 24.2 mph N/A   Scattered Clouds
12:55 AM 24.8 °F 11.5 °F 12.2 °F 59% 29.76 in 10.0 mi NW 17.3 mph 24.2 mph N/A   Scattered Clouds
1:15 AM 24.8 °F 11.5 °F 12.2 °F 59% 29.77 in 10.0 mi NW 17.3 mph 24.2 mph N/A   Partly Cloudy
1:35 AM 23.0 °F 12.4 °F 12.2 °F 63% 29.79 in 10.0 mi NW 10.4 mph 21.9 mph N/A   Clear
1:55 AM 23.0 °F 11.1 °F 10.4 °F 59% 29.81 in 10.0 mi NW 12.7 mph 20.7 mph N/A   Clear
2:35 AM 23.0 °F 11.7 °F 12.2 °F 63% 29.83 in 10.0 mi NW 11.5 mph 20.7 mph N/A   Clear
2:55 AM 23.0 °F 10.1 °F 12.2 °F 63% 29.83 in 10.0 mi NW 15.0 mph 21.9 mph N/A   Clear
3:15 AM 23.0 °F 11.7 °F 12.2 °F 63% 29.85 in 10.0 mi NW 11.5 mph 16.1 mph N/A   Clear
3:35 AM 23.0 °F 11.1 °F 12.2 °F 63% 29.85 in 10.0 mi NW 12.7 mph 19.6 mph N/A   Clear
3:55 AM 23.0 °F 11.7 °F 12.2 °F 63% 29.87 in 10.0 mi WNW 11.5 mph 19.6 mph N/A   Clear
4:15 AM 21.2 °F 10.1 °F 12.2 °F 68% 29.88 in 10.0 mi WNW 10.4 mph - N/A   Clear
4:35 AM 21.2 °F 10.1 °F 12.2 °F 68% 29.89 in 10.0 mi WNW 10.4 mph - N/A   Clear
4:55 AM 21.2 °F 10.9 °F 12.2 °F 68% 29.91 in 10.0 mi WNW 9.2 mph - N/A   Clear
5:15 AM 21.2 °F 10.1 °F 12.2 °F 68% 29.92 in 10.0 mi WNW 10.4 mph 17.3 mph N/A   Clear
5:35 AM 21.2 °F 10.9 °F 12.2 °F 68% 29.93 in 10.0 mi WNW 9.2 mph - N/A   Clear
5:55 AM 21.2 °F 10.1 °F 12.2 °F 68% 29.94 in 10.0 mi WNW 10.4 mph - N/A   Clear
6:15 AM 21.2 °F 11.7 °F 12.2 °F 68% 29.95 in 10.0 mi WNW 8.1 mph - N/A   Clear
6:35 AM 21.2 °F 10.9 °F 12.2 °F 68% 29.96 in 10.0 mi WNW 9.2 mph - N/A   Clear
6:55 AM 21.2 °F 10.9 °F 10.4 °F 63% 29.97 in 10.0 mi WNW 9.2 mph - N/A   Clear
7:15 AM 21.2 °F 10.1 °F 12.2 °F 68% 29.99 in 10.0 mi WNW 10.4 mph - N/A   Clear
7:35 AM 21.2 °F 10.9 °F 12.2 °F 68% 30.00 in 10.0 mi WNW 9.2 mph - N/A   Clear
7:55 AM 21.2 °F 8.9 °F 12.2 °F 68% 30.01 in 10.0 mi WNW 12.7 mph - N/A   Clear
8:15 AM 21.2 °F 9.5 °F 10.4 °F 63% 30.03 in 10.0 mi WNW 11.5 mph 16.1 mph N/A   Clear
8:35 AM 23.0 °F 10.6 °F 10.4 °F 59% 30.04 in 10.0 mi NW 13.8 mph 19.6 mph N/A   Clear
8:55 AM 24.8 °F 11.9 °F 10.4 °F 54% 30.05 in 10.0 mi NW 16.1 mph 23.0 mph N/A   Clear
9:15 AM 24.8 °F 12.4 °F 10.4 °F 54% 30.06 in 10.0 mi NNW 15.0 mph - N/A   Clear
9:35 AM 26.6 °F 14.3 °F 10.4 °F 51% 30.07 in 10.0 mi NW 16.1 mph 20.7 mph N/A   Clear
9:55 AM 26.6 °F 15.2 °F 8.6 °F 47% 30.08 in 10.0 mi WNW 13.8 mph 20.7 mph N/A   Clear
10:15 AM 26.6 °F 14.3 °F 10.4 °F 51% 30.09 in 10.0 mi NW 16.1 mph 19.6 mph N/A   Clear
10:35 AM 26.6 °F 14.7 °F 10.4 °F 51% 30.10 in 10.0 mi NW 15.0 mph 18.4 mph N/A   Clear
10:55 AM 28.4 °F 19.1 °F 10.4 °F 47% 30.12 in 10.0 mi NNW 10.4 mph 19.6 mph N/A   Clear
11:15 AM 28.4 °F 18.0 °F 10.4 °F 47% 30.13 in 10.0 mi NW 12.7 mph 20.7 mph N/A   Partly Cloudy
11:35 AM 30.2 °F 21.3 °F 10.4 °F 44% 30.14 in 10.0 mi NW 10.4 mph 19.6 mph N/A   Scattered Clouds
11:55 AM 30.2 °F 19.3 °F 8.6 °F 40% 30.14 in 10.0 mi WNW 15.0 mph - N/A   Scattered Clouds
12:15 PM 30.2 °F 19.8 °F 10.4 °F 44% 30.16 in 10.0 mi NW 13.8 mph 18.4 mph N/A   Scattered Clouds
12:35 PM 32.0 °F 26.4 °F 10.4 °F 41% 30.18 in 10.0 mi North 5.8 mph 17.3 mph N/A   Scattered Clouds
12:55 PM 32.0 °F 22.1 °F 8.6 °F 38% 30.18 in 10.0 mi North 13.8 mph 18.4 mph N/A   Partly Cloudy
1:15 PM 33.8 °F 23.5 °F 10.4 °F 38% 30.18 in 10.0 mi WNW 16.1 mph - N/A   Mostly Cloudy
1:35 PM 33.8 °F 26.4 °F 10.4 °F 38% 30.19 in 10.0 mi NNW 9.2 mph 19.6 mph N/A   Scattered Clouds
1:55 PM 33.8 °F 25.3 °F 8.6 °F 35% 30.20 in 10.0 mi NW 11.5 mph 16.1 mph N/A   Partly Cloudy
2:15 PM 35.6 °F 28.6 °F 8.6 °F 33% 30.21 in 10.0 mi West 9.2 mph 18.4 mph N/A   Mostly Cloudy
2:35 PM 35.6 °F 25.9 °F 10.4 °F 35% 30.20 in 10.0 mi WNW 16.1 mph 24.2 mph N/A   Mostly Cloudy
2:55 PM 35.6 °F 28.6 °F 10.4 °F 35% 30.22 in 10.0 mi West 9.2 mph 18.4 mph N/A   Scattered Clouds
3:15 PM 35.6 °F 29.9 °F 10.4 °F 35% 30.23 in 10.0 mi WSW 6.9 mph - N/A   Scattered Clouds
3:35 PM 37.4 °F 30.3 °F 12.2 °F 36% 30.23 in 10.0 mi West 10.4 mph 21.9 mph N/A   Mostly Cloudy
3:55 PM 35.6 °F 29.9 °F 8.6 °F 33% 30.24 in 10.0 mi North 6.9 mph - N/A   Mostly Cloudy
4:15 PM 37.4 °F 30.8 °F 10.4 °F 33% 30.25 in 10.0 mi West 9.2 mph - N/A   Overcast
4:35 PM 37.4 °F 30.3 °F 10.4 °F 33% 30.25 in 10.0 mi WNW 10.4 mph 16.1 mph N/A   Mostly Cloudy
4:55 PM 37.4 °F 33.8 °F 10.4 °F 33% 30.27 in 10.0 mi West 4.6 mph - N/A   Scattered Clouds
5:15 PM 37.4 °F 31.4 °F 10.4 °F 33% 30.28 in 10.0 mi South 8.1 mph - N/A   Mostly Cloudy
5:35 PM 35.6 °F 27.5 °F 14.0 °F 41% 30.29 in 10.0 mi SSE 11.5 mph - N/A   Mostly Cloudy
5:55 PM 35.6 °F 27.5 °F 15.8 °F 44% 30.29 in 10.0 mi SSE 11.5 mph - N/A   Mostly Cloudy
6:15 PM 33.8 °F 24.8 °F 15.8 °F 48% 30.31 in 10.0 mi SSE 12.7 mph - N/A   Overcast
6:35 PM 33.8 °F 25.8 °F 15.8 °F 48% 30.31 in 10.0 mi South 10.4 mph - N/A   Mostly Cloudy
6:55 PM 33.8 °F 27.0 °F 15.8 °F 48% 30.32 in 10.0 mi SSE 8.1 mph - N/A   Partly Cloudy
7:15 PM 33.8 °F 27.7 °F 14.0 °F 44% 30.33 in 10.0 mi SE 6.9 mph - N/A   Clear
7:35 PM 33.8 °F 28.6 °F 12.2 °F 41% 30.34 in 10.0 mi SE 5.8 mph - N/A   Clear
7:55 PM 33.8 °F 28.6 °F 14.0 °F 44% 30.34 in 10.0 mi SE 5.8 mph - N/A   Clear
8:15 PM 33.8 °F 29.6 °F 15.8 °F 48% 30.35 in 10.0 mi ESE 4.6 mph - N/A   Clear
8:35 PM 32.0 °F 28.7 °F 14.0 °F 48% 30.37 in 10.0 mi ENE 3.5 mph - N/A   Clear
8:55 PM 30.2 °F 25.4 °F 15.8 °F 55% 30.38 in 10.0 mi ENE 4.6 mph - N/A   Clear
9:15 PM 30.2 °F 24.3 °F 15.8 °F 55% 30.38 in 10.0 mi NE 5.8 mph - N/A   Clear
9:35 PM 30.2 °F 23.4 °F 15.8 °F 55% 30.39 in 10.0 mi NE 6.9 mph - N/A   Clear
9:55 PM 30.2 °F 24.3 °F 15.8 °F 55% 30.40 in 10.0 mi NE 5.8 mph - N/A   Clear
10:15 PM 28.4 °F 24.6 °F 15.8 °F 59% 30.41 in 10.0 mi ENE 3.5 mph - N/A   Clear
10:35 PM 28.4 °F 22.2 °F 15.8 °F 59% 30.41 in 10.0 mi ENE 5.8 mph - N/A   Clear
10:55 PM 28.4 °F 22.2 °F 15.8 °F 59% 30.42 in 10.0 mi ENE 5.8 mph - N/A   Clear
11:15 PM 28.4 °F 23.3 °F 15.8 °F 59% 30.43 in 10.0 mi ENE 4.6 mph - N/A   Clear
11:35 PM 28.4 °F 24.6 °F 15.8 °F 59% 30.43 in 10.0 mi ENE 3.5 mph - N/A   Clear
11:55 PM 26.6 °F 22.6 °F 15.8 °F 64% 30.43 in 10.0 mi ENE 3.5 mph - N/A   Clear